DL9RAN-11 Weather Reports


Display with metric or nautical units.
time (UTC)temp
F
wind
direction
speed
MPH
gust
MPH
rain 1hr
in
rain 24hr
in
rain mn
in
humidity
%
barometer
mb
20260506035540 55 0.0 0.0 0.00 0.00 0.00 76 1011.2
20260506034509 55 0.0 0.0 0.00 0.00 0.00 76 1011.3
20260506034008 55 0.0 0.0 0.00 0.00 0.00 76 1011.3
20260506033508 55 0.0 0.0 0.00 0.00 0.00 76 1011.3
20260506033008 55 0.0 0.0 0.00 0.00 0.00 76 1011.2
20260506032507 55 0.0 0.0 0.00 0.00 0.00 76 1011.2
20260506032007 55 0.0 0.0 0.00 0.00 0.00 76 1011.2
20260506031507 55 0.0 0.0 0.00 0.00 0.00 76 1011.2
20260506031007 56 0.0 0.0 0.00 0.00 0.00 76 1011.1
20260506030506 56 0.0 0.0 0.00 0.00 0.00 76 1011.1
20260506030006 56 0.0 0.0 0.00 0.00 0.00 76 1010.9
20260506025506 56 0.0 0.0 0.00 0.00 0.00 76 1011.1
20260506025005 56 0.0 0.0 0.00 0.00 0.00 76 1011.1
20260506024505 56 0.0 0.0 0.00 0.00 0.00 76 1011.1
20260506024005 56 0.0 0.0 0.00 0.00 0.00 76 1011.1
20260506023504 56 0.0 0.0 0.00 0.00 0.00 76 1011.1
20260506023004 56 0.0 0.0 0.00 0.00 0.00 76 1011.1
20260506021932 57 0.0 0.0 0.00 0.00 0.00 76 1011.1
20260506020330 57 0.0 0.0 0.00 0.00 0.00 77 1011.4
20260506014156 57 0.0 0.0 0.00 0.00 0.00 76 1011.3
20260506013656 57 0.0 0.0 0.00 0.00 0.00 76 1011.2
20260506012624 57 0.0 0.0 0.00 0.00 0.00 75 1011.3
20260506011553 58 0.0 0.0 0.00 0.00 0.00 74 1011.5
20260506005950 59 0.0 0.0 0.00 0.00 0.00 73 1011.5
20260506004347 59 0.0 0.0 0.00 0.00 0.00 74 1011.8
20260506003847 59 0.0 0.0 0.00 0.00 0.00 73 1011.8
20260506003347 59 0.0 0.0 0.00 0.00 0.00 73 1011.7
20260506001213 59 0.0 0.0 0.00 0.00 0.00 74 1011.8
20260505235610 59 0.0 0.0 0.00 0.00 0.00 73 1012.2
20260505232334 59 0.0 0.0 0.00 0.00 0.00 73 1012.2
20260505231834 60 0.0 0.0 0.00 0.00 0.00 73 1012.2
20260505230803 60 0.0 0.0 0.00 0.00 0.00 72 1012.2
20260505225731 60 0.0 0.0 0.00 0.00 0.00 71 1012.2
20260505223557 60 0.0 0.0 0.00 0.00 0.00 71 1012.0
20260505223057 60 0.0 0.0 0.00 0.00 0.00 71 1012.0
20260505222026 60 0.0 0.0 0.00 0.00 0.00 71 1012.0
20260505220954 60 0.0 0.0 0.00 0.00 0.00 71 1011.9
20260505220454 60 0.0 0.0 0.00 0.00 0.00 71 1011.9
20260505215954 60 0.0 0.0 0.00 0.00 0.00 71 1012.1
20260505215453 61 0.0 0.0 0.00 0.00 0.00 71 1012.1
20260505214953 61 0.0 0.0 0.00 0.00 0.00 71 1012.1
20260505214453 61 0.0 0.0 0.00 0.00 0.00 70 1011.8
20260505213952 61 0.0 0.0 0.00 0.00 0.00 70 1011.8
20260505213452 61 0.0 0.0 0.00 0.00 0.00 70 1011.8
20260505212420 61 0.0 0.0 0.00 0.00 0.00 69 1011.8
20260505210818 62 0.0 0.0 0.00 0.00 0.00 68 1011.6
20260505205746 62 0.0 0.0 0.00 0.00 0.00 67 1011.2
20260505204715 62 0.0 0.0 0.00 0.00 0.00 67 1011.2
20260505200336 63 0.0 0.0 0.00 0.00 0.00 66 1010.8
20260505195836 63 0.0 0.0 0.00 0.00 0.00 66 1010.7
20260505194233 63 0.0 0.0 0.00 0.00 0.00 64 1010.0
20260505192100 63 0.0 0.0 0.00 0.00 0.00 65 1009.7
20260505191559 63 0.0 0.0 0.00 0.00 0.00 65 1009.7
20260505185957 64 0.0 0.0 0.00 0.00 0.00 64 1009.6
20260505184354 64 0.0 0.0 0.00 0.00 0.00 63 1009.7
20260505183854 64 0.0 0.0 0.00 0.00 0.00 63 1009.7
20260505183353 64 0.0 0.0 0.00 0.00 0.00 64 1009.7
20260505182853 64 0.0 0.0 0.00 0.00 0.00 64 1009.7
20260505182353 64 0.0 0.0 0.00 0.00 0.00 64 1009.7
20260505181852 64 0.0 0.0 0.00 0.00 0.00 63 1009.7
20260505181352 65 0.0 0.0 0.00 0.00 0.00 63 1009.6
20260505180852 65 0.0 0.0 0.00 0.00 0.00 62 1009.7
20260505180351 65 0.0 0.0 0.00 0.00 0.00 61 1010.0
20260505175851 66 0.0 0.0 0.00 0.00 0.00 60 1010.0
20260505175351 67 0.0 0.0 0.00 0.00 0.00 57 1010.0
20260505174319 67 0.0 0.0 0.00 0.00 0.00 52 1009.9
20260505173248 68 0.0 0.0 0.00 0.00 0.00 52 1009.9
20260505172747 68 0.0 0.0 0.00 0.00 0.00 52 1010.0
20260505172247 68 0.0 0.0 0.00 0.00 0.00 51 1010.0
20260505171747 69 0.0 0.0 0.00 0.00 0.00 51 1010.0
20260505171246 69 0.0 0.0 0.00 0.00 0.00 51 1009.3
20260505165112 71 0.0 0.0 0.00 0.00 0.00 47 1009.3
20260505164041 74 0.0 0.0 0.00 0.00 0.00 46 1008.8
20260505162438 74 0.0 0.0 0.00 0.00 0.00 41 1008.8
20260505161938 74 0.0 0.0 0.00 0.00 0.00 41 1008.8
20260505161437 74 0.0 0.0 0.00 0.00 0.00 40 1008.8
20260505160406 74 0.0 0.0 0.00 0.00 0.00 41 1008.8
20260505153302 75 0.0 0.0 0.00 0.00 0.00 40 1008.8
20260505152231 75 0.0 0.0 0.00 0.00 0.00 39 1008.9
20260505151731 75 0.0 0.0 0.00 0.00 0.00 39 1009.0
20260505151230 75 0.0 0.0 0.00 0.00 0.00 39 1009.0
20260505124735 77 0.0 0.0 0.00 0.00 0.00 37 1010.4
20260505123704 77 0.0 0.0 0.00 0.00 0.00 36 1010.4
20260505123204 78 0.0 0.0 0.00 0.00 0.00 36 1010.4
20260505122132 78 0.0 0.0 0.00 0.00 0.00 36 1010.4
20260505121101 79 0.0 0.0 0.00 0.00 0.00 35 1010.8
20260505120029 79 0.0 0.0 0.00 0.00 0.00 36 1011.0
20260505114426 79 0.0 0.0 0.00 0.00 0.00 34 1011.0
20260505113355 79 0.0 0.0 0.00 0.00 0.00 35 1011.0
20260505112323 79 0.0 0.0 0.00 0.00 0.00 36 1011.0
20260505111823 79 0.0 0.0 0.00 0.00 0.00 37 1011.1
20260505110220 81 0.0 0.0 0.00 0.00 0.00 35 1011.2
20260505101944 80 0.0 0.0 0.00 0.00 0.00 43 1011.5
20260505095238 79 0.0 0.0 0.00 0.00 0.00 43 1011.5
20260505093105 78 0.0 0.0 0.00 0.00 0.00 45 1011.6
20260505092604 77 0.0 0.0 0.00 0.00 0.00 46 1011.6
20260505091533 77 0.0 0.0 0.00 0.00 0.00 47 1011.6
20260505091033 76 0.0 0.0 0.00 0.00 0.00 46 1011.6
20260505090532 76 0.0 0.0 0.00 0.00 0.00 46 1011.6
20260505090032 76 0.0 0.0 0.00 0.00 0.00 47 1011.6
20260505083858 75 0.0 0.0 0.00 0.00 0.00 48 1011.6
20260505082826 75 0.0 0.0 0.00 0.00 0.00 49 1011.6
20260505082326 74 0.0 0.0 0.00 0.00 0.00 51 1011.9
20260505081826 73 0.0 0.0 0.00 0.00 0.00 51 1011.9
20260505081325 73 0.0 0.0 0.00 0.00 0.00 52 1011.9
20260505080825 73 0.0 0.0 0.00 0.00 0.00 53 1011.7
20260505075754 72 0.0 0.0 0.00 0.00 0.00 53 1011.9
20260505075253 72 0.0 0.0 0.00 0.00 0.00 53 1011.9
20260505074222 71 0.0 0.0 0.00 0.00 0.00 55 1011.9
20260505073150 71 0.0 0.0 0.00 0.00 0.00 55 1011.9
20260505072650 69 0.0 0.0 0.00 0.00 0.00 56 1011.9
20260505072149 69 0.0 0.0 0.00 0.00 0.00 57 1011.9
20260505071649 69 0.0 0.0 0.00 0.00 0.00 58 1011.9
20260505071149 69 0.0 0.0 0.00 0.00 0.00 58 1011.9
20260505070649 69 0.0 0.0 0.00 0.00 0.00 58 1011.9
20260505070148 68 0.0 0.0 0.00 0.00 0.00 60 1011.9
20260505065117 67 0.0 0.0 0.00 0.00 0.00 61 1011.9
20260505064617 66 0.0 0.0 0.00 0.00 0.00 61 1011.9
20260505064116 66 0.0 0.0 0.00 0.00 0.00 61 1011.9
20260505055737 62 0.0 0.0 0.00 0.00 0.00 66 1011.9
20260505055237 62 0.0 0.0 0.00 0.00 0.00 66 1011.6
20260505054206 60 0.0 0.0 0.00 0.00 0.00 67 1011.6
20260505053705 60 0.0 0.0 0.00 0.00 0.00 67 1011.6
20260505052634 58 0.0 0.0 0.00 0.00 0.00 67 1011.6
20260505051031 58 0.0 0.0 0.00 0.00 0.00 66 1011.6